Flight Track Log - Related Links

Times and Time Zones

All times are in EDT time to prevent confusion due to time zone crossing. See the NKS347 flight status page for this flight to view local times or setup timezone preferences in your user account.

Time Position Orientation Groundspeed Altitude Reporting Facility
EDT Latitude Longitude Course Direction KTS MPH feet Rate Location/Type
Fri 07:04:05 PM 40.8167 -73.8667 346° North 133 153 2,000  Level New York TRACON
Fri 07:05:05 PM 40.8667 -73.8833 232° Southwest 208 239 3,700 2,429 Climbing New York TRACON
Fri 07:06:11 PM 40.8167 -73.9667 210° Southwest 271 312 7,100 3,286 Climbing New York TRACON
Fri 07:07:11 PM 40.7500 -74.0167 204° Southwest 287 330 10,600 2,450 Climbing New York TRACON
Fri 07:08:11 PM 40.6667 -74.0667 203° Southwest 339 390 12,000 1,135 Climbing New York TRACON
Fri 07:09:39 PM 40.5361 -74.1401 189° South 360 414 13,400 1,600 Climbing FlightAware ADS-B
Fri 07:10:11 PM 40.4841 -74.1512 189° South 358 412 15,200 2,516 Climbing FlightAware ADS-B
Fri 07:10:41 PM 40.4322 -74.1626 189° South 380 437 16,000 1,672 Climbing FlightAware ADS-B
Fri 07:11:12 PM 40.3777 -74.1741 189° South 382 440 16,900 871 Climbing FlightAware ADS-B
Fri 07:11:43 PM 40.3254 -74.1849 189° South 383 441 16,900  Level FlightAware ADS-B
Fri 07:12:13 PM 40.2708 -74.1962 189° South 385 443 16,900 115 Level FlightAware ADS-B
Fri 07:12:35 PM 40.2336 -74.2043 195° South 385 443 17,000 462 Climbing FlightAware ADS-B
Fri 07:12:39 PM 40.2266 -74.2068 205° Southwest 381 438 17,100 1,765 Climbing FlightAware ADS-B
Fri 07:12:52 PM 40.2067 -74.2188 218° Southwest 366 421 17,500 2,512 Climbing FlightAware ADS-B
Fri 07:13:22 PM 40.1677 -74.2581 217° Southwest 347 399 18,900 2,435 Climbing FlightAware ADS-B
Fri 07:14:01 PM 40.1184 -74.3073 217° Southwest 355 409 20,300 2,057 Climbing FlightAware ADS-B
Fri 07:14:32 PM 40.0766 -74.3491 217° Southwest 365 420 21,300 1,909 Climbing FlightAware ADS-B
Fri 07:15:07 PM 40.0294 -74.3962 217° Southwest 373 429 22,400 1,846 Climbing FlightAware ADS-B
Fri 07:15:37 PM 39.9870 -74.4382 217° Southwest 379 436 23,300 1,500 Climbing FlightAware ADS-B
Fri 07:16:11 PM 39.9396 -74.4849 217° Southwest 380 437 24,000 750 Climbing FlightAware ADS-B
Fri 07:16:41 PM 39.8973 -74.5270 217° Southwest 379 436 24,100 689 Climbing FlightAware ADS-B
Fri 07:17:12 PM 39.8545 -74.5692 217° Southwest 390 449 24,700 1,477 Climbing FlightAware ADS-B
Fri 07:17:46 PM 39.8050 -74.6179 217° Southwest 390 449 25,700 1,754 Climbing FlightAware ADS-B
Fri 07:18:17 PM 39.7600 -74.6622 217° Southwest 392 451 26,600 1,652 Climbing FlightAware ADS-B
Fri 07:18:55 PM 39.7048 -74.7167 217° Southwest 396 456 27,600 1,478 Climbing FlightAware ADS-B
Fri 07:19:26 PM 39.6602 -74.7606 217° Southwest 400 460 28,300 1,279 Climbing FlightAware ADS-B
Fri 07:19:56 PM 39.6153 -74.8045 217° Southwest 405 466 28,900 1,313 Climbing FlightAware ADS-B
Fri 07:20:30 PM 39.5649 -74.8538 217° Southwest 406 467 29,700 1,313 Climbing FlightAware ADS-B
Fri 07:21:00 PM 39.5195 -74.8979 216° Southwest 410 472 30,300 1,404 Climbing FlightAware ADS-B
Fri 07:21:17 PM 39.4936 -74.9226 209° Southwest 412 474 30,800 1,250 Climbing FlightAware ADS-B
Fri 07:21:48 PM 39.4391 -74.9614 207° Southwest 429 494 31,300 1,161 Climbing FlightAware ADS-B
Fri 07:22:19 PM 39.3860 -74.9968 208° Southwest 428 493 32,000 1,279 Climbing FlightAware ADS-B
Fri 07:22:49 PM 39.3327 -75.0328 208° Southwest 427 491 32,600 1,258 Climbing FlightAware ADS-B
Fri 07:23:21 PM 39.2762 -75.0711 208° Southwest 425 489 33,300 1,258 Climbing FlightAware ADS-B
Fri 07:23:51 PM 39.2237 -75.1066 208° Southwest 425 489 33,900 1,065 Climbing FlightAware ADS-B
Fri 07:24:23 PM 39.1693 -75.1433 208° Southwest 427 491 34,400 968 Climbing FlightAware ADS-B
Fri 07:24:53 PM 39.1158 -75.1793 208° Southwest 427 491 34,900 871 Climbing FlightAware ADS-B
Fri 07:25:25 PM 39.0606 -75.2165 208° Southwest 433 498 35,300 733 Climbing FlightAware ADS-B
Fri 07:26:23 PM 38.9570 -75.2859 207° Southwest 434 499 36,000 477 Climbing FlightAware ADS-B
Fri 07:26:53 PM 38.9033 -75.3214 208° Southwest 430 495 36,000  Level FlightAware ADS-B
Fri 07:27:43 PM 38.8152 -75.3804 208° Southwest 429 494 36,000  Level FlightAware ADS-B
Fri 07:28:13 PM 38.7622 -75.4159 207° Southwest 428 493 36,000  Level FlightAware ADS-B
Fri 07:28:43 PM 38.7094 -75.4510 207° Southwest 428 493 36,000  Level FlightAware ADS-B
Fri 07:29:17 PM 38.6507 -75.4899 207° Southwest 428 493 36,000  Level FlightAware ADS-B
Fri 07:29:49 PM 38.5947 -75.5268 207° Southwest 426 490 36,000  Level FlightAware ADS-B
Fri 07:30:24 PM 38.5327 -75.5677 207° Southwest 424 488 36,000  Level FlightAware ADS-B
Fri 07:30:55 PM 38.4790 -75.6031 207° Southwest 424 488 36,000  Level FlightAware ADS-B
Fri 07:31:27 PM 38.4226 -75.6402 207° Southwest 425 489 36,000  Level FlightAware ADS-B
Fri 07:31:58 PM 38.3694 -75.6752 207° Southwest 425 489 36,000  Level FlightAware ADS-B
Fri 07:32:28 PM 38.3158 -75.7104 207° Southwest 427 491 36,000  Level FlightAware ADS-B
Fri 07:33:00 PM 38.2597 -75.7472 207° Southwest 428 493 36,000  Level FlightAware ADS-B
Fri 07:33:31 PM 38.2052 -75.7828 207° Southwest 429 494 36,000  Level FlightAware ADS-B
Fri 07:34:04 PM 38.1464 -75.8213 207° Southwest 431 496 36,000  Level FlightAware ADS-B
Fri 07:34:37 PM 38.0894 -75.8584 207° Southwest 432 497 36,000  Level FlightAware ADS-B
Fri 07:35:15 PM 38.0212 -75.9027 207° Southwest 431 496 36,000  Level FlightAware ADS-B
Fri 07:35:49 PM 37.9607 -75.9417 207° Southwest 429 494 36,000  Level FlightAware ADS-B
Fri 07:36:22 PM 37.9035 -75.9789 207° Southwest 429 494 36,000  Level FlightAware ADS-B
Fri 07:36:57 PM 37.8414 -76.0194 207° Southwest 431 496 36,000  Level FlightAware ADS-B
Fri 07:37:27 PM 37.7877 -76.0540 210° Southwest 432 497 36,000 -79 Level FlightAware ADS-B
Fri 07:38:13 PM 37.7278 -76.0986 206° Southwest 429 494 35,900  Descending Washington Center
Fri 07:39:37 PM 37.5572 -76.2019 207° Southwest 430 495 36,000 53 Climbing FlightAware ADS-B
Fri 07:40:07 PM 37.5038 -76.2361 207° Southwest 431 496 36,000  Level FlightAware ADS-B
Fri 07:40:38 PM 37.4486 -76.2713 207° Southwest 433 498 36,000  Level FlightAware ADS-B
Fri 07:41:09 PM 37.3932 -76.3067 207° Southwest 433 498 36,000  Level FlightAware ADS-B
Fri 07:41:40 PM 37.3375 -76.3423 207° Southwest 436 502 36,000  Level FlightAware ADS-B
Fri 07:42:13 PM 37.2772 -76.3806 207° Southwest 436 502 36,000  Level FlightAware ADS-B
Fri 07:42:44 PM 37.2209 -76.4162 207° Southwest 435 501 36,000  Level FlightAware ADS-B
Fri 07:43:15 PM 37.1658 -76.4511 207° Southwest 437 503 36,000  Level FlightAware ADS-B
Fri 07:43:47 PM 37.1101 -76.4863 206° Southwest 437 503 36,000  Level FlightAware ADS-B
Fri 07:46:12 PM 36.8608 -76.6406 208° Southwest 429 494 36,000  Level Washington Center
Fri 07:47:13 PM 36.7517 -76.7117 207° Southwest 434 499 36,000  Level Washington Center
Fri 07:48:14 PM 36.6447 -76.7800 206° Southwest 434 499 36,000 -689 Level Washington Center
Fri 07:49:15 PM 36.5356 -76.8458 208° Southwest 434 499 34,600 -1,068 Descending Washington Center
Fri 07:50:12 PM 36.4261 -76.9189 206° Southwest 434 499 33,900 -356 Descending Washington Center
Fri 07:51:13 PM 36.3169 -76.9839 207° Southwest 434 499 33,900 50 Level Washington Center
Fri 07:52:11 PM 36.2078 -77.0542 205° Southwest 434 499 34,000  Climbing Washington Center
Fri 07:53:12 PM 36.0964 -77.1189 206° Southwest 434 499 33,900  Descending Washington Center
Fri 07:54:13 PM 35.9786 -77.1911 207° Southwest 427 491 34,000 50 Climbing Washington Center
Fri 07:55:12 PM 35.8711 -77.2581 206° Southwest 433 498 34,000  Level Washington Center
Fri 07:56:12 PM 35.7597 -77.3250 206° Southwest 439 505 34,000 -800 Level Washington Center
Fri 07:57:12 PM 35.6522 -77.3892 207° Southwest 439 505 32,400 -1,869 Descending Washington Center
Fri 07:58:14 PM 35.5406 -77.4581 205° Southwest 439 505 30,200 -2,016 Descending Washington Center
Fri 07:59:14 PM 35.4375 -77.5167 210° Southwest 424 488 28,300 -1,916 Descending Washington Center
Fri 08:00:13 PM 35.3383 -77.5858 213° Southwest 411 473 26,400 -1,850 Descending Washington Center
Fri 08:01:14 PM 35.2600 -77.6472 216° Southwest 400 460 24,600 -1,210 Descending Washington Center
Fri 08:02:12 PM 35.1753 -77.7214 214° Southwest 389 448 24,000 -305 Descending Washington Center
Fri 08:03:12 PM 35.0883 -77.7928 213° Southwest 384 442 24,000 -148 Level Washington Center
Fri 08:04:14 PM 34.9994 -77.8639 214° Southwest 379 436 23,700 -645 Descending Washington Center
Fri 08:05:13 PM 34.9125 -77.9350 214° Southwest 379 436 22,700 -1,059 Descending Washington Center
Fri 08:06:13 PM 34.8214 -78.0106 216° Southwest 379 436 21,600 -1,008 Descending Washington Center
Fri 08:07:12 PM 34.7469 -78.0767 213° Southwest 379 436 20,700 -1,361 Descending Washington Center
Fri 08:08:12 PM 34.6642 -78.1422 214° Southwest 373 429 18,900 -1,901 Descending Washington Center
Fri 08:10:34 PM 34.4744 -78.2961 214° Southwest 348 400 14,300 -1,871 Descending Jacksonville Center
Fri 08:11:34 PM 34.3975 -78.3581 215° Southwest 341 392 12,600 -1,750 Descending Jacksonville Center
Fri 08:12:34 PM 34.3244 -78.4197 213° Southwest 335 386 10,800 -1,300 Descending Jacksonville Center
Fri 08:13:34 PM 34.2556 -78.4736 215° Southwest 328 377 10,000 -1,300 Descending Jacksonville Center
Fri 08:14:34 PM 34.1947 -78.5244 219° Southwest 298 343 8,200 -1,650 Descending Jacksonville Center
Fri 08:15:34 PM 34.1361 -78.5825 221° Southwest 284 327 6,700 -1,450 Descending Jacksonville Center
Fri 08:16:34 PM 34.0819 -78.6403 219° Southwest 273 314 5,300 -1,400 Descending Jacksonville Center
Fri 08:17:34 PM 34.0253 -78.6956 220° Southwest 268 308 3,900 -1,200 Descending Jacksonville Center
Fri 08:18:34 PM 33.9708 -78.7508 220° Southwest 268 308 2,900 -800 Descending Jacksonville Center
Fri 08:19:34 PM 33.9164 -78.8061 220° Southwest 268 308 2,300 -600 Descending Jacksonville Center

Login

Don't have an account? Register now (free) for customized features, flight alerts, and more!